Location: S�deilles
(46.7500°N, 6.9329°E)
Time: 17:36:54
(UTC+00:00)

Cosmos 2322 - Pass Details

Date: 08 March 2021
Orbit: 842 x 853 km, 71.0° (Epoch: 19 April)

Event Time Altitude Azimuth Distance (km) Brightness Sun altitude
Rises 18:37:18 0° 208° (SSW) 3,409 7.1 -12.6°
Reaches altitude 10° 18:39:45 10° 209° (SSW) 2,477 6.4 -13.0°
Maximum altitude 18:45:27 81° 297° (WNW) 869 3.8 -14.0°
Drops below altitude 10° 18:51:12 10° 25° (NNE) 2,489 6.0 -15.0°
Sets 18:53:40 0° 27° (NNE) 3,427 6.7 -15.4°
